THORAD AGENA D DEB, 39592

Orbit data source: Space-Track

THORAD AGENA D DEB, 39592 is space debris in SSO originally from a launch on Wed, 08 Apr 1970 UTC launched from the Air Force Western Test Range (AFWTR). Debris objects in space refer to the collection of defunct objects orbiting the Earth. Examples of debris include non-operational satellites, rocket bodies, and fragments generated from explosions, collisions, or faulty payload assembly.

Loading next visibility...
Identifier
39592, 1970-025QT
Orbit
SSO
Country
Flag of USUS
Related business
Manufacturer
Unknown
Mission
Spacecraft
Bus & Motor
Unknown
Mass
Unknown
Launch date (UTC)
1970-04-08 (56 years ago)
Launch vehicle
Unknown
Launch site
Air Force Western Test Range (AFWTR)
Object type
Payload
Rocket body
Debris
Shape & HBR
Unknown shape, 0.1 m
Radar Cross Section
Small (<0.1 m²)

Expand to show TLE details & history
Last TLE update: 8 hours ago

TLE from 8 hours ago
0 THORAD AGENA D DEB
1 39592U 70025QT  26035.49088311  .00001073  00000-0  15429-2 0  9996
2 39592 100.1433  52.7807 0001753  22.1691 337.9522 13.58328634591131
Epoch: 2026-02-04T11:46Z
TLE epoch observation values (Epoch: 2026-02-04T11:46:52.300Z)
Latitude
-0.00003°
Longitude
101.40608°
Altitude
1,043.348 km
Speed
7.331 km/s
True Right ascension
03h 31m 07s
True Declination
0° 00' 00"
Sunlit
Object was in daylight at epoch
Visualization orbit readout
Latitude
Unknown
Longitude
Unknown
Altitude
Unknown
Speed
Unknown
Apparent Right ascension
Unknown
Apparent Declination
Unknown
Sunlit
N/A
Visualization observer readout
Local Sidereal Time
21:23:01
Azimuth
Unknown
Elevation
Unknown
Doppler factor
Unknown
Orbital elements
Apogee altitude
1,040.386 km
Perigee altitude
1,037.786 km
Semi-major axis
7,417.223 km
Eccentricity
0.00018
Inclination
100.1433°
RAAN
52.7807°
Arg. of periapsis
22.1691°
True anomaly
337.94466°
Mean anomaly
337.9522°
Eccentric anomaly
337.94843°
Mean motion
3.39767 °/min
Orbital period
105.95 mins
BSTAR
0.0015429
Loading maneuver chart data...
Computing Atmospheric mass density...

Documentation

Showing up to 5 results
|